Time,TemperatureF,DewpointF,PressureIn,WindDirection,WindDirectionDegrees,WindSpeedMPH,WindSpeedGustMPH,Humidity,HourlyPrecipIn,Conditions,Clouds,dailyrainin,SoftwareType,DateUTC
2013-02-10 00:00:00,59.8,54.6,30.20,ENE,68,3.0,5.0,83,0.00,,SKC,0.01,VWS V14.01,2013-02-10 05:00:00,
2013-02-10 00:05:00,59.7,54.9,30.20,NE,55,2.0,5.0,84,0.00,,SKC,0.00,VWS V14.01,2013-02-10 05:05:00,
2013-02-10 00:10:00,59.7,54.9,30.20,ENE,60,1.0,5.0,84,0.00,,SKC,0.00,VWS V14.01,2013-02-10 05:10:00,
2013-02-10 00:15:00,59.7,54.9,30.20,NE,38,3.0,6.0,84,0.00,,SKC,0.00,VWS V14.01,2013-02-10 05:15:00,
2013-02-10 00:20:00,59.6,54.8,30.20,ENE,74,4.0,6.0,84,0.00,,SKC,0.00,VWS V14.01,2013-02-10 05:20:00,
2013-02-10 00:25:00,59.6,54.8,30.19,NE,47,2.0,5.0,84,0.00,,SKC,0.00,VWS V14.01,2013-02-10 05:25:00,
2013-02-10 00:30:00,59.5,55.0,30.20,NE,42,2.0,6.0,85,0.00,,SKC,0.00,VWS V14.01,2013-02-10 05:30:00,
2013-02-10 00:35:00,59.4,54.9,30.20,NE,52,3.0,6.0,85,0.00,,SKC,0.00,VWS V14.01,2013-02-10 05:35:00,
2013-02-10 00:40:00,59.4,54.9,30.19,NE,51,3.0,7.0,85,0.00,,SKC,0.00,VWS V14.01,2013-02-10 05:40:00,
2013-02-10 00:45:00,59.3,54.8,30.19,ENE,63,2.0,8.0,85,0.00,,SKC,0.00,VWS V14.01,2013-02-10 05:45:00,
2013-02-10 00:50:00,59.3,54.8,30.19,ENE,67,3.0,9.0,85,0.00,,SKC,0.00,VWS V14.01,2013-02-10 05:50:00,
2013-02-10 00:55:00,59.2,54.7,30.19,ENE,75,4.0,9.0,85,0.00,,SKC,0.00,VWS V14.01,2013-02-10 05:55:00,
2013-02-10 01:00:00,59.1,54.9,30.19,ENE,57,4.0,7.0,86,0.00,,SKC,0.00,VWS V14.01,2013-02-10 06:00:00,
2013-02-10 01:05:00,59.0,54.8,30.19,ENE,63,4.0,7.0,86,0.00,,SKC,0.00,VWS V14.01,2013-02-10 06:05:00,
2013-02-10 01:10:00,59.0,54.8,30.19,ENE,63,2.0,2.0,86,0.00,,SKC,0.00,VWS V14.01,2013-02-10 06:10:00,
2013-02-10 01:15:00,58.9,54.7,30.19,ENE,73,5.0,9.0,86,0.00,,SKC,0.00,VWS V14.01,2013-02-10 06:15:00,
2013-02-10 01:20:00,58.9,54.7,30.19,ENE,71,5.0,7.0,86,0.00,,SKC,0.00,VWS V14.01,2013-02-10 06:20:00,
2013-02-10 01:25:00,58.9,55.0,30.19,East,90,6.0,7.0,87,0.00,,SKC,0.00,VWS V14.01,2013-02-10 06:25:00,
2013-02-10 01:30:00,58.8,55.0,30.19,ENE,78,3.0,8.0,87,0.00,,SKC,0.00,VWS V14.01,2013-02-10 06:30:00,
2013-02-10 01:35:00,58.8,55.0,30.19,ENE,71,5.0,8.0,87,0.00,,SKC,0.00,VWS V14.01,2013-02-10 06:35:00,
2013-02-10 01:40:00,58.8,55.0,30.18,NE,56,4.0,8.0,87,0.00,,SKC,0.00,VWS V14.01,2013-02-10 06:40:00,
2013-02-10 01:45:00,58.7,54.8,30.18,ENE,76,3.0,7.0,87,0.00,,SKC,0.00,VWS V14.01,2013-02-10 06:45:00,
2013-02-10 01:50:00,58.7,55.2,30.18,ENE,65,4.0,8.0,88,0.00,,SKC,0.00,VWS V14.01,2013-02-10 06:50:00,
2013-02-10 01:55:00,58.7,55.2,30.18,ENE,66,4.0,8.0,88,0.00,,SKC,0.00,VWS V14.01,2013-02-10 06:55:00,
2013-02-10 02:00:00,58.7,55.2,30.18,ENE,65,4.0,7.0,88,0.00,,SKC,0.00,VWS V14.01,2013-02-10 07:00:00,
2013-02-10 02:05:00,58.7,55.2,30.18,East,92,3.0,8.0,88,0.00,,SKC,0.00,VWS V14.01,2013-02-10 07:05:00,
2013-02-10 02:10:00,58.7,55.2,30.18,ENE,65,3.0,7.0,88,0.00,,SKC,0.00,VWS V14.01,2013-02-10 07:10:00,
2013-02-10 02:15:00,58.6,55.1,30.18,ENE,71,3.0,7.0,88,0.00,,SKC,0.00,VWS V14.01,2013-02-10 07:15:00,
2013-02-10 02:20:00,58.6,55.1,30.18,ENE,72,7.0,7.0,88,0.00,,SKC,0.00,VWS V14.01,2013-02-10 07:20:00,
2013-02-10 02:25:00,58.6,55.1,30.18,ENE,78,4.0,8.0,88,0.00,,SKC,0.00,VWS V14.01,2013-02-10 07:25:00,
2013-02-10 02:30:00,58.6,55.1,30.18,ENE,64,5.0,5.0,88,0.00,,SKC,0.00,VWS V14.01,2013-02-10 07:30:00,
2013-02-10 02:35:00,58.7,55.2,30.18,ENE,71,2.0,10.0,88,0.00,,SKC,0.00,VWS V14.01,2013-02-10 07:35:00,
2013-02-10 02:40:00,58.8,55.3,30.17,ENE,67,5.0,8.0,88,0.00,,SKC,0.00,VWS V14.01,2013-02-10 07:40:00,
2013-02-10 02:45:00,58.8,55.3,30.17,East,93,5.0,5.0,88,0.00,,SKC,0.00,VWS V14.01,2013-02-10 07:45:00,
2013-02-10 02:50:00,59.0,55.5,30.17,NE,53,3.0,8.0,88,0.00,,SKC,0.00,VWS V14.01,2013-02-10 07:50:00,
2013-02-10 02:55:00,59.0,55.5,30.17,East,94,5.0,9.0,88,0.00,,SKC,0.00,VWS V14.01,2013-02-10 07:55:00,
2013-02-10 03:00:00,59.0,55.5,30.17,ENE,68,8.0,9.0,88,0.00,,SKC,0.00,VWS V14.01,2013-02-10 08:00:00,
2013-02-10 03:05:00,59.1,55.5,30.17,ENE,74,3.0,8.0,88,0.00,,SKC,0.00,VWS V14.01,2013-02-10 08:05:00,
2013-02-10 03:10:00,59.0,55.5,30.17,ENE,67,2.0,2.0,88,0.00,,SKC,0.00,VWS V14.01,2013-02-10 08:10:00,
2013-02-10 03:15:00,59.0,55.5,30.17,ENE,67,4.0,4.0,88,0.00,,SKC,0.00,VWS V14.01,2013-02-10 08:15:00,
2013-02-10 03:20:00,59.0,55.5,30.17,ENE,70,3.0,3.0,88,0.00,,SKC,0.00,VWS V14.01,2013-02-10 08:20:00,
2013-02-10 03:25:00,59.0,55.5,30.17,ENE,70,3.0,3.0,88,0.00,,SKC,0.00,VWS V14.01,2013-02-10 08:25:00,
2013-02-10 03:30:00,59.0,55.5,30.17,East,101,3.0,3.0,88,0.00,,SKC,0.00,VWS V14.01,2013-02-10 08:30:00,
2013-02-10 03:35:00,58.9,55.4,30.17,ENE,69,3.0,3.0,88,0.00,,SKC,0.00,VWS V14.01,2013-02-10 08:35:00,
2013-02-10 03:40:00,58.9,55.4,30.17,East,82,5.0,5.0,88,0.00,,SKC,0.00,VWS V14.01,2013-02-10 08:40:00,
2013-02-10 03:45:00,58.7,55.2,30.17,ENE,69,3.0,3.0,88,0.00,,SKC,0.00,VWS V14.01,2013-02-10 08:45:00,
2013-02-10 03:50:00,58.6,55.1,30.17,ENE,68,4.0,5.0,88,0.00,,SKC,0.00,VWS V14.01,2013-02-10 08:50:00,
2013-02-10 03:55:00,58.6,55.1,30.18,ENE,57,5.0,5.0,88,0.00,,SKC,0.00,VWS V14.01,2013-02-10 08:55:00,
2013-02-10 04:00:00,58.5,55.0,30.18,East,80,3.0,3.0,88,0.00,,SKC,0.00,VWS V14.01,2013-02-10 09:00:00,
2013-02-10 04:05:00,58.5,55.0,30.17,ENE,73,5.0,7.0,88,0.00,,SKC,0.00,VWS V14.01,2013-02-10 09:05:00,
2013-02-10 04:10:00,58.4,55.2,30.17,ENE,71,3.0,4.0,89,0.00,,SKC,0.00,VWS V14.01,2013-02-10 09:10:00,
2013-02-10 04:15:00,58.3,55.1,30.18,ENE,67,5.0,5.0,89,0.00,,SKC,0.00,VWS V14.01,2013-02-10 09:15:00,
2013-02-10 04:20:00,58.3,55.1,30.18,ENE,66,3.0,4.0,89,0.00,,SKC,0.00,VWS V14.01,2013-02-10 09:20:00,
2013-02-10 04:25:00,58.2,55.0,30.17,ENE,76,4.0,4.0,89,0.00,,SKC,0.00,VWS V14.01,2013-02-10 09:25:00,
2013-02-10 04:30:00,58.2,55.0,30.17,East,84,5.0,8.0,89,0.00,,SKC,0.00,VWS V14.01,2013-02-10 09:30:00,
2013-02-10 04:35:00,58.2,55.0,30.17,ENE,59,3.0,4.0,89,0.00,,SKC,0.00,VWS V14.01,2013-02-10 09:35:00,
2013-02-10 04:40:00,58.1,54.9,30.17,ENE,66,5.0,7.0,89,0.00,,SKC,0.00,VWS V14.01,2013-02-10 09:40:00,
2013-02-10 04:45:00,58.1,54.9,30.17,East,94,2.0,6.0,89,0.00,,SKC,0.00,VWS V14.01,2013-02-10 09:45:00,
2013-02-10 04:50:00,58.0,54.8,30.17,ENE,77,3.0,4.0,89,0.00,,SKC,0.00,VWS V14.01,2013-02-10 09:50:00,
2013-02-10 04:55:00,57.9,54.7,30.17,ENE,70,7.0,8.0,89,0.00,,SKC,0.00,VWS V14.01,2013-02-10 09:55:00,
2013-02-10 05:00:00,57.8,54.6,30.17,ENE,74,4.0,4.0,89,0.00,,SKC,0.00,VWS V14.01,2013-02-10 10:00:00,
2013-02-10 05:05:00,57.7,54.8,30.17,ENE,76,3.0,5.0,90,0.00,,SKC,0.00,VWS V14.01,2013-02-10 10:05:00,
2013-02-10 05:10:00,57.7,54.8,30.17,East,86,5.0,6.0,90,0.00,,SKC,0.00,VWS V14.01,2013-02-10 10:10:00,
2013-02-10 05:15:00,57.6,54.7,30.17,East,84,5.0,5.0,90,0.00,,SKC,0.00,VWS V14.01,2013-02-10 10:15:00,
2013-02-10 05:20:00,57.7,54.8,30.18,East,84,5.0,6.0,90,0.00,,SKC,0.00,VWS V14.01,2013-02-10 10:20:00,
2013-02-10 05:25:00,57.8,54.9,30.18,ENE,76,5.0,6.0,90,0.00,,SKC,0.00,VWS V14.01,2013-02-10 10:25:00,
2013-02-10 05:30:00,58.1,54.9,30.18,East,84,2.0,5.0,89,0.00,,SKC,0.00,VWS V14.01,2013-02-10 10:30:00,
2013-02-10 05:35:00,58.2,55.0,30.18,East,94,7.0,7.0,89,0.00,,SKC,0.00,VWS V14.01,2013-02-10 10:35:00,
2013-02-10 05:40:00,58.4,55.2,30.18,East,85,5.0,6.0,89,0.00,,SKC,0.00,VWS V14.01,2013-02-10 10:40:00,
2013-02-10 05:45:00,58.5,55.0,30.18,East,90,5.0,5.0,88,0.00,,SKC,0.00,VWS V14.01,2013-02-10 10:45:00,
2013-02-10 05:50:00,58.6,55.1,30.18,East,88,6.0,6.0,88,0.00,,SKC,0.00,VWS V14.01,2013-02-10 10:50:00,
2013-02-10 05:55:00,58.7,55.2,30.18,ENE,72,4.0,6.0,88,0.00,,SKC,0.00,VWS V14.01,2013-02-10 10:55:00,
2013-02-10 06:00:00,58.7,55.2,30.19,East,92,6.0,6.0,88,0.00,,SKC,0.00,VWS V14.01,2013-02-10 11:00:00,
2013-02-10 06:05:00,58.8,55.3,30.19,East,86,5.0,5.0,88,0.00,,SKC,0.00,VWS V14.01,2013-02-10 11:05:00,
2013-02-10 06:10:00,58.9,55.0,30.19,East,83,5.0,6.0,87,0.00,,SKC,0.00,VWS V14.01,2013-02-10 11:10:00,
2013-02-10 06:15:00,58.9,55.0,30.18,East,85,5.0,5.0,87,0.00,,SKC,0.00,VWS V14.01,2013-02-10 11:15:00,
2013-02-10 06:20:00,58.9,55.0,30.18,East,98,6.0,7.0,87,0.00,,SKC,0.00,VWS V14.01,2013-02-10 11:20:00,
2013-02-10 06:25:00,58.8,55.0,30.19,East,89,5.0,7.0,87,0.00,,SKC,0.00,VWS V14.01,2013-02-10 11:25:00,
2013-02-10 06:30:00,58.8,55.0,30.19,ENE,74,7.0,7.0,87,0.00,,SKC,0.00,VWS V14.01,2013-02-10 11:30:00,
2013-02-10 06:35:00,58.8,55.0,30.19,ENE,61,7.0,9.0,87,0.00,,SKC,0.00,VWS V14.01,2013-02-10 11:35:00,
2013-02-10 06:40:00,58.7,54.8,30.19,East,90,7.0,9.0,87,0.00,,SKC,0.00,VWS V14.01,2013-02-10 11:40:00,
2013-02-10 06:45:00,58.7,55.2,30.19,East,94,6.0,6.0,88,0.00,,SKC,0.00,VWS V14.01,2013-02-10 11:45:00,
2013-02-10 06:50:00,58.8,55.3,30.19,East,81,6.0,6.0,88,0.00,,SKC,0.00,VWS V14.01,2013-02-10 11:50:00,
2013-02-10 06:55:00,58.8,55.0,30.19,East,91,6.0,8.0,87,0.00,,SKC,0.00,VWS V14.01,2013-02-10 11:55:00,
2013-02-10 07:00:00,58.9,55.0,30.19,East,86,6.0,8.0,87,0.00,,SKC,0.00,VWS V14.01,2013-02-10 12:00:00,
2013-02-10 07:05:00,58.9,55.0,30.19,East,85,9.0,9.0,87,0.00,,SKC,0.00,VWS V14.01,2013-02-10 12:05:00,
2013-02-10 07:10:00,59.0,55.1,30.19,ENE,67,5.0,7.0,87,0.00,,SKC,0.00,VWS V14.01,2013-02-10 12:10:00,
2013-02-10 07:15:00,59.1,55.2,30.20,ENE,76,3.0,7.0,87,0.00,,SKC,0.00,VWS V14.01,2013-02-10 12:15:00,
2013-02-10 07:20:00,59.2,55.3,30.20,East,99,6.0,8.0,87,0.00,,SKC,0.00,VWS V14.01,2013-02-10 12:20:00,
2013-02-10 07:25:00,59.3,55.4,30.20,East,98,7.0,7.0,87,0.00,,SKC,0.00,VWS V14.01,2013-02-10 12:25:00,
2013-02-10 07:31:00,59.4,55.5,30.21,East,80,6.0,7.0,87,0.00,,SKC,0.00,VWS V14.01,2013-02-10 12:31:00,
2013-02-10 07:35:00,59.6,55.7,30.21,ENE,58,5.0,7.0,87,0.00,,SKC,0.00,VWS V14.01,2013-02-10 12:35:00,
2013-02-10 07:41:00,59.7,55.8,30.21,East,95,9.0,9.0,87,0.00,,SKC,0.00,VWS V14.01,2013-02-10 12:41:00,
2013-02-10 07:46:00,59.9,55.7,30.21,East,85,5.0,5.0,86,0.00,,SKC,0.00,VWS V14.01,2013-02-10 12:46:00,
2013-02-10 07:51:00,60.2,56.0,30.22,East,92,6.0,6.0,86,0.00,,SKC,0.00,VWS V14.01,2013-02-10 12:51:00,
2013-02-10 07:56:00,60.5,56.3,30.22,ENE,76,3.0,6.0,86,0.00,,SKC,0.00,VWS V14.01,2013-02-10 12:56:00,
2013-02-10 08:01:00,60.7,56.2,30.22,East,92,5.0,8.0,85,0.00,,SKC,0.00,VWS V14.01,2013-02-10 13:01:00,
2013-02-10 08:06:00,60.8,56.3,30.22,East,80,9.0,9.0,85,0.00,,SKC,0.00,VWS V14.01,2013-02-10 13:06:00,
2013-02-10 08:11:00,60.9,56.0,30.22,East,86,7.0,8.0,84,0.00,,SKC,0.00,VWS V14.01,2013-02-10 13:11:00,
2013-02-10 08:16:00,60.9,56.0,30.23,East,86,6.0,9.0,84,0.00,,SKC,0.00,VWS V14.01,2013-02-10 13:16:00,
2013-02-10 08:21:00,61.1,56.2,30.22,East,89,7.0,8.0,84,0.00,,SKC,0.00,VWS V14.01,2013-02-10 13:21:00,
2013-02-10 08:26:00,61.4,56.5,30.23,East,82,5.0,5.0,84,0.00,,SKC,0.00,VWS V14.01,2013-02-10 13:26:00,
2013-02-10 08:31:00,62.0,56.8,30.23,East,94,7.0,8.0,83,0.00,,SKC,0.00,VWS V14.01,2013-02-10 13:31:00,
2013-02-10 08:36:00,62.6,57.0,30.23,ESE,108,5.0,8.0,82,0.00,,SKC,0.00,VWS V14.01,2013-02-10 13:36:00,
2013-02-10 08:41:00,63.2,57.3,30.23,ESE,112,4.0,10.0,81,0.00,,SKC,0.00,VWS V14.01,2013-02-10 13:41:00,
2013-02-10 08:46:00,63.6,57.3,30.24,East,94,7.0,9.0,80,0.00,,SKC,0.00,VWS V14.01,2013-02-10 13:46:00,
2013-02-10 08:51:00,64.1,57.5,30.24,ESE,107,7.0,9.0,79,0.00,,SKC,0.00,VWS V14.01,2013-02-10 13:51:00,
2013-02-10 08:56:00,64.5,57.8,30.24,ENE,78,5.0,10.0,79,0.00,,SKC,0.00,VWS V14.01,2013-02-10 13:56:00,
2013-02-10 09:01:00,64.7,57.3,30.24,East,99,9.0,13.0,77,0.00,,SKC,0.00,VWS V14.01,2013-02-10 14:01:00,
2013-02-10 09:06:00,64.9,57.9,30.24,East,89,7.0,15.0,78,0.00,,SKC,0.00,VWS V14.01,2013-02-10 14:06:00,
2013-02-10 09:11:00,65.5,57.7,30.24,East,85,6.0,13.0,76,0.00,,SKC,0.00,VWS V14.01,2013-02-10 14:11:00,
2013-02-10 09:16:00,65.9,57.8,30.24,East,92,11.0,16.0,75,0.00,,SKC,0.00,VWS V14.01,2013-02-10 14:16:00,
2013-02-10 09:21:00,66.3,57.8,30.25,East,81,13.0,17.0,74,0.00,,SKC,0.00,VWS V14.01,2013-02-10 14:21:00,
2013-02-10 09:26:00,66.5,58.0,30.25,East,92,8.0,10.0,74,0.00,,SKC,0.00,VWS V14.01,2013-02-10 14:26:00,
2013-02-10 09:31:00,66.5,58.0,30.25,East,95,9.0,11.0,74,0.00,,SKC,0.00,VWS V14.01,2013-02-10 14:31:00,
2013-02-10 09:36:00,66.7,58.2,30.25,East,87,6.0,8.0,74,0.00,,SKC,0.00,VWS V14.01,2013-02-10 14:36:00,
2013-02-10 09:41:00,67.0,58.1,30.25,East,91,8.0,10.0,73,0.00,,SKC,0.00,VWS V14.01,2013-02-10 14:41:00,
2013-02-10 09:46:00,67.5,58.5,30.25,East,98,8.0,10.0,73,0.00,,SKC,0.00,VWS V14.01,2013-02-10 14:46:00,
2013-02-10 09:51:00,68.0,58.7,30.25,East,100,7.0,7.0,72,0.00,,SKC,0.00,VWS V14.01,2013-02-10 14:51:00,
2013-02-10 09:56:00,68.4,58.2,30.25,SE,128,13.0,18.0,70,0.00,,SKC,0.00,VWS V14.01,2013-02-10 14:56:00,
2013-02-10 10:01:00,68.8,58.2,30.25,SE,134,11.0,14.0,69,0.00,,SKC,0.00,VWS V14.01,2013-02-10 15:01:00,
2013-02-10 10:06:00,69.1,58.1,30.25,ESE,107,14.0,16.0,68,0.00,,SKC,0.00,VWS V14.01,2013-02-10 15:06:00,
2013-02-10 10:11:00,69.3,58.3,30.25,East,86,9.0,11.0,68,0.00,,SKC,0.00,VWS V14.01,2013-02-10 15:11:00,
2013-02-10 10:16:00,69.8,58.8,30.25,SE,139,11.0,15.0,68,0.00,,SKC,0.00,VWS V14.01,2013-02-10 15:16:00,
2013-02-10 10:21:00,70.1,58.7,30.26,East,101,13.0,18.0,67,0.00,,SKC,0.00,VWS V14.01,2013-02-10 15:21:00,
2013-02-10 10:26:00,70.2,58.7,30.26,ESE,103,15.0,20.0,67,0.00,,SKC,0.00,VWS V14.01,2013-02-10 15:26:00,
2013-02-10 10:31:00,70.3,58.8,30.26,ESE,103,12.0,17.0,67,0.00,,SKC,0.00,VWS V14.01,2013-02-10 15:31:00,
2013-02-10 10:36:00,70.4,58.5,30.26,East,89,8.0,9.0,66,0.00,,SKC,0.00,VWS V14.01,2013-02-10 15:36:00,
2013-02-10 10:41:00,70.6,58.7,30.26,East,85,5.0,14.0,66,0.00,,SKC,0.00,VWS V14.01,2013-02-10 15:41:00,
2013-02-10 10:46:00,71.4,59.5,30.26,East,87,14.0,14.0,66,0.00,,SKC,0.00,VWS V14.01,2013-02-10 15:46:00,
2013-02-10 10:51:00,71.8,59.8,30.26,ESE,117,8.0,13.0,66,0.00,,SKC,0.00,VWS V14.01,2013-02-10 15:51:00,
2013-02-10 10:56:00,72.1,59.7,30.26,East,101,9.0,9.0,65,0.00,,SKC,0.00,VWS V14.01,2013-02-10 15:56:00,
2013-02-10 11:01:00,72.3,59.5,30.26,East,95,9.0,11.0,64,0.00,,SKC,0.00,VWS V14.01,2013-02-10 16:01:00,
2013-02-10 11:06:00,72.2,59.4,30.26,East,86,10.0,15.0,64,0.00,,SKC,0.00,VWS V14.01,2013-02-10 16:06:00,
2013-02-10 11:11:00,72.3,59.5,30.26,SE,142,6.0,10.0,64,0.00,,SKC,0.00,VWS V14.01,2013-02-10 16:11:00,
2013-02-10 11:16:00,72.3,59.5,30.25,East,90,8.0,11.0,64,0.00,,SKC,0.00,VWS V14.01,2013-02-10 16:16:00,
2013-02-10 11:21:00,72.4,59.5,30.25,SSE,163,5.0,8.0,64,0.00,,SKC,0.00,VWS V14.01,2013-02-10 16:21:00,
2013-02-10 11:26:00,72.3,59.9,30.25,SSE,151,6.0,10.0,65,0.00,,SKC,0.00,VWS V14.01,2013-02-10 16:26:00,
2013-02-10 11:31:00,72.3,59.5,30.25,ESE,115,3.0,7.0,64,0.00,,SKC,0.00,VWS V14.01,2013-02-10 16:31:00,
2013-02-10 11:36:00,72.6,59.7,30.25,SSE,165,3.0,8.0,64,0.00,,SKC,0.00,VWS V14.01,2013-02-10 16:36:00,
2013-02-10 11:41:00,73.1,59.8,30.24,ESE,106,10.0,10.0,63,0.00,,SKC,0.00,VWS V14.01,2013-02-10 16:41:00,
2013-02-10 11:46:00,73.0,60.1,30.24,SE,140,5.0,8.0,64,0.00,,SKC,0.00,VWS V14.01,2013-02-10 16:46:00,
2013-02-10 11:51:00,73.1,60.2,30.24,South,182,7.0,13.0,64,0.00,,SKC,0.00,VWS V14.01,2013-02-10 16:51:00,
2013-02-10 11:56:00,73.0,60.1,30.24,East,84,9.0,9.0,64,0.00,,SKC,0.00,VWS V14.01,2013-02-10 16:56:00,
2013-02-10 12:01:00,73.3,60.0,30.24,East,87,8.0,16.0,63,0.00,,SKC,0.00,VWS V14.01,2013-02-10 17:01:00,
2013-02-10 12:06:00,73.6,60.2,30.24,East,92,11.0,11.0,63,0.00,,SKC,0.00,VWS V14.01,2013-02-10 17:06:00,
2013-02-10 12:11:00,73.7,60.3,30.23,ESE,107,17.0,17.0,63,0.00,,SKC,0.00,VWS V14.01,2013-02-10 17:11:00,
2013-02-10 12:15:00,73.5,60.2,30.23,SE,132,1.0,6.0,63,0.00,,SKC,0.00,VWS V14.01,2013-02-10 17:15:00,
2013-02-10 12:20:00,74.0,60.6,30.23,East,89,13.0,13.0,63,0.00,,SKC,0.00,VWS V14.01,2013-02-10 17:20:00,
2013-02-10 12:25:00,74.3,60.5,30.23,SE,134,8.0,12.0,62,0.00,,SKC,0.00,VWS V14.01,2013-02-10 17:25:00,
2013-02-10 12:31:00,74.4,60.1,30.23,East,87,7.0,10.0,61,0.00,,SKC,0.00,VWS V14.01,2013-02-10 17:31:00,
2013-02-10 12:36:00,74.1,60.3,30.22,SE,132,5.0,7.0,62,0.00,,SKC,0.00,VWS V14.01,2013-02-10 17:36:00,
2013-02-10 12:41:00,74.0,60.2,30.22,ESE,120,13.0,13.0,62,0.00,,SKC,0.00,VWS V14.01,2013-02-10 17:41:00,
2013-02-10 12:46:00,74.1,60.3,30.22,ESE,117,3.0,8.0,62,0.00,,SKC,0.00,VWS V14.01,2013-02-10 17:46:00,
2013-02-10 12:51:00,74.3,60.5,30.22,East,100,6.0,6.0,62,0.00,,SKC,0.00,VWS V14.01,2013-02-10 17:51:00,
2013-02-10 12:56:00,74.4,60.1,30.22,ESE,119,10.0,14.0,61,0.00,,SKC,0.00,VWS V14.01,2013-02-10 17:56:00,
2013-02-10 13:01:00,74.1,60.3,30.21,ESE,123,7.0,10.0,62,0.00,,SKC,0.00,VWS V14.01,2013-02-10 18:01:00,
2013-02-10 13:05:00,74.2,59.9,30.20,SE,124,8.0,13.0,61,0.00,,SKC,0.00,VWS V14.01,2013-02-10 18:05:00,
2013-02-10 13:10:00,74.2,60.4,30.20,SE,138,8.0,9.0,62,0.00,,SKC,0.00,VWS V14.01,2013-02-10 18:10:00,
2013-02-10 13:15:00,74.3,60.0,30.20,East,94,6.0,8.0,61,0.00,,SKC,0.00,VWS V14.01,2013-02-10 18:15:00,
2013-02-10 13:20:00,74.7,60.4,30.20,SSE,155,4.0,4.0,61,0.00,,SKC,0.00,VWS V14.01,2013-02-10 18:20:00,
2013-02-10 13:25:00,74.6,60.3,30.19,SE,139,10.0,10.0,61,0.00,,SKC,0.00,VWS V14.01,2013-02-10 18:25:00,
2013-02-10 13:30:00,74.8,60.5,30.19,ESE,113,3.0,5.0,61,0.00,,SKC,0.00,VWS V14.01,2013-02-10 18:30:00,
2013-02-10 13:36:00,75.4,60.1,30.18,SE,135,6.0,11.0,59,0.00,,SKC,0.00,VWS V14.01,2013-02-10 18:36:00,
2013-02-10 13:40:00,75.2,60.4,30.18,ESE,117,12.0,12.0,60,0.00,,SKC,0.00,VWS V14.01,2013-02-10 18:40:00,
2013-02-10 13:45:00,75.0,60.2,30.18,SE,140,6.0,9.0,60,0.00,,SKC,0.00,VWS V14.01,2013-02-10 18:45:00,
2013-02-10 13:50:00,75.1,59.8,30.18,SE,134,7.0,7.0,59,0.00,,SKC,0.00,VWS V14.01,2013-02-10 18:50:00,
2013-02-10 13:55:00,75.7,59.9,30.18,ESE,115,3.0,7.0,58,0.00,,SKC,0.00,VWS V14.01,2013-02-10 18:55:00,
2013-02-10 14:00:00,75.6,59.8,30.17,SE,136,6.0,10.0,58,0.00,,SKC,0.00,VWS V14.01,2013-02-10 19:00:00,
2013-02-10 14:05:00,75.6,60.3,30.17,SE,142,7.0,13.0,59,0.00,,SKC,0.00,VWS V14.01,2013-02-10 19:05:00,
2013-02-10 14:10:00,75.7,60.4,30.17,ESE,122,2.0,10.0,59,0.00,,SKC,0.00,VWS V14.01,2013-02-10 19:10:00,
2013-02-10 14:15:00,76.2,59.9,30.17,ESE,102,9.0,10.0,57,0.00,,SKC,0.00,VWS V14.01,2013-02-10 19:15:00,
2013-02-10 14:20:00,76.2,59.9,30.17,ESE,103,8.0,9.0,57,0.00,,SKC,0.00,VWS V14.01,2013-02-10 19:20:00,
2013-02-10 14:25:00,76.2,59.9,30.17,SSE,157,7.0,9.0,57,0.00,,SKC,0.00,VWS V14.01,2013-02-10 19:25:00,
2013-02-10 14:30:00,76.6,60.2,30.17,ESE,115,7.0,11.0,57,0.00,,SKC,0.00,VWS V14.01,2013-02-10 19:30:00,
2013-02-10 14:35:00,76.7,59.8,30.17,ESE,109,8.0,8.0,56,0.00,,SKC,0.00,VWS V14.01,2013-02-10 19:35:00,
2013-02-10 14:40:00,76.2,59.9,30.16,ESE,102,12.0,16.0,57,0.00,,SKC,0.00,VWS V14.01,2013-02-10 19:40:00,
2013-02-10 14:45:00,76.4,60.5,30.16,East,101,11.0,11.0,58,0.00,,SKC,0.00,VWS V14.01,2013-02-10 19:45:00,
2013-02-10 14:50:00,76.2,60.4,30.16,SE,131,5.0,6.0,58,0.00,,SKC,0.00,VWS V14.01,2013-02-10 19:50:00,
2013-02-10 14:55:00,76.6,60.2,30.16,East,94,8.0,9.0,57,0.00,,SKC,0.00,VWS V14.01,2013-02-10 19:55:00,
2013-02-10 15:00:00,76.8,59.9,30.16,SSE,148,5.0,11.0,56,0.00,,SKC,0.00,VWS V14.01,2013-02-10 20:00:00,
2013-02-10 15:05:00,77.0,60.1,30.16,SE,140,14.0,18.0,56,0.00,,SKC,0.00,VWS V14.01,2013-02-10 20:05:00,
2013-02-10 15:10:00,77.2,60.3,30.16,SE,141,4.0,8.0,56,0.00,,SKC,0.00,VWS V14.01,2013-02-10 20:10:00,
2013-02-10 15:15:00,77.1,60.2,30.16,SSE,156,4.0,9.0,56,0.00,,SKC,0.00,VWS V14.01,2013-02-10 20:15:00,
2013-02-10 15:20:00,76.6,59.8,30.16,ESE,123,7.0,14.0,56,0.00,,SKC,0.00,VWS V14.01,2013-02-10 20:20:00,
2013-02-10 15:25:00,76.3,60.0,30.16,SE,127,9.0,10.0,57,0.00,,SKC,0.00,VWS V14.01,2013-02-10 20:25:00,
2013-02-10 15:30:00,76.2,59.9,30.16,East,93,7.0,10.0,57,0.00,,SKC,0.00,VWS V14.01,2013-02-10 20:30:00,
2013-02-10 15:35:00,76.2,59.9,30.16,SE,136,5.0,7.0,57,0.00,,SKC,0.00,VWS V14.01,2013-02-10 20:35:00,
2013-02-10 15:40:00,76.4,60.1,30.16,East,86,8.0,9.0,57,0.00,,SKC,0.00,VWS V14.01,2013-02-10 20:40:00,
2013-02-10 15:45:00,76.5,60.2,30.15,ESE,115,10.0,11.0,57,0.00,,SKC,0.00,VWS V14.01,2013-02-10 20:45:00,
2013-02-10 15:50:00,76.5,60.2,30.16,ESE,105,12.0,12.0,57,0.00,,SKC,0.00,VWS V14.01,2013-02-10 20:50:00,
2013-02-10 15:55:00,76.2,59.9,30.16,ESE,107,8.0,11.0,57,0.00,,SKC,0.00,VWS V14.01,2013-02-10 20:55:00,
2013-02-10 16:00:00,76.0,60.2,30.16,ESE,109,8.0,8.0,58,0.00,,SKC,0.00,VWS V14.01,2013-02-10 21:00:00,
2013-02-10 16:05:00,75.6,59.8,30.15,ESE,117,11.0,13.0,58,0.00,,SKC,0.00,VWS V14.01,2013-02-10 21:05:00,
2013-02-10 16:10:00,75.7,60.4,30.15,SE,135,4.0,10.0,59,0.00,,SKC,0.00,VWS V14.01,2013-02-10 21:10:00,
2013-02-10 16:15:00,75.6,60.3,30.15,SE,128,7.0,11.0,59,0.00,,SKC,0.00,VWS V14.01,2013-02-10 21:15:00,
2013-02-10 16:20:00,75.1,59.8,30.15,ESE,120,9.0,16.0,59,0.00,,SKC,0.00,VWS V14.01,2013-02-10 21:20:00,
2013-02-10 16:25:00,75.2,60.4,30.15,SE,129,5.0,5.0,60,0.00,,SKC,0.00,VWS V14.01,2013-02-10 21:25:00,
2013-02-10 16:30:00,75.4,60.6,30.15,East,83,6.0,8.0,60,0.00,,SKC,0.00,VWS V14.01,2013-02-10 21:30:00,
2013-02-10 16:35:00,75.3,60.5,30.15,East,80,8.0,8.0,60,0.00,,SKC,0.00,VWS V14.01,2013-02-10 21:35:00,
2013-02-10 16:40:00,75.4,60.1,30.16,SE,130,9.0,12.0,59,0.00,,SKC,0.00,VWS V14.01,2013-02-10 21:40:00,
2013-02-10 16:45:00,75.2,59.9,30.16,ESE,108,3.0,10.0,59,0.00,,SKC,0.00,VWS V14.01,2013-02-10 21:45:00,
2013-02-10 16:50:00,75.1,59.8,30.15,East,91,10.0,16.0,59,0.00,,SKC,0.00,VWS V14.01,2013-02-10 21:50:00,
2013-02-10 16:55:00,74.9,60.1,30.15,SE,130,5.0,9.0,60,0.00,,SKC,0.00,VWS V14.01,2013-02-10 21:55:00,
2013-02-10 17:00:00,74.8,60.0,30.16,ESE,105,7.0,7.0,60,0.00,,SKC,0.00,VWS V14.01,2013-02-10 22:00:00,
2013-02-10 17:05:00,74.6,59.8,30.16,SE,135,6.0,6.0,60,0.00,,SKC,0.00,VWS V14.01,2013-02-10 22:05:00,
2013-02-10 17:10:00,74.2,59.9,30.16,ESE,112,2.0,8.0,61,0.00,,SKC,0.00,VWS V14.01,2013-02-10 22:10:00,
2013-02-10 17:15:00,73.9,59.6,30.16,ESE,115,12.0,14.0,61,0.00,,SKC,0.00,VWS V14.01,2013-02-10 22:15:00,
2013-02-10 17:20:00,73.7,59.9,30.16,ESE,109,11.0,11.0,62,0.00,,SKC,0.00,VWS V14.01,2013-02-10 22:20:00,
2013-02-10 17:25:00,73.4,59.6,30.16,ESE,121,9.0,14.0,62,0.00,,SKC,0.00,VWS V14.01,2013-02-10 22:25:00,
2013-02-10 17:30:00,73.2,59.4,30.16,ESE,109,13.0,13.0,62,0.00,,SKC,0.00,VWS V14.01,2013-02-10 22:30:00,
2013-02-10 17:35:00,73.0,59.7,30.16,ESE,119,7.0,8.0,63,0.00,,SKC,0.00,VWS V14.01,2013-02-10 22:35:00,
2013-02-10 17:40:00,72.8,59.9,30.16,East,96,9.0,9.0,64,0.00,,SKC,0.00,VWS V14.01,2013-02-10 22:40:00,
2013-02-10 17:45:00,72.6,59.7,30.16,ESE,105,5.0,6.0,64,0.00,,SKC,0.00,VWS V14.01,2013-02-10 22:45:00,
2013-02-10 17:50:00,72.4,59.5,30.16,ESE,119,9.0,9.0,64,0.00,,SKC,0.00,VWS V14.01,2013-02-10 22:50:00,
2013-02-10 17:55:00,72.2,59.4,30.16,SE,129,5.0,9.0,64,0.00,,SKC,0.00,VWS V14.01,2013-02-10 22:55:00,
2013-02-10 18:00:00,72.0,59.6,30.16,East,100,6.0,9.0,65,0.00,,SKC,0.00,VWS V14.01,2013-02-10 23:00:00,
2013-02-10 18:05:00,71.7,59.3,30.17,ESE,107,11.0,11.0,65,0.00,,SKC,0.00,VWS V14.01,2013-02-10 23:05:00,
2013-02-10 18:10:00,71.5,59.1,30.16,ESE,116,11.0,13.0,65,0.00,,SKC,0.00,VWS V14.01,2013-02-10 23:10:00,
2013-02-10 18:15:00,71.2,59.3,30.16,East,94,16.0,16.0,66,0.00,,SKC,0.00,VWS V14.01,2013-02-10 23:15:00,
2013-02-10 18:20:00,71.0,59.1,30.16,East,100,7.0,9.0,66,0.00,,SKC,0.00,VWS V14.01,2013-02-10 23:20:00,
2013-02-10 18:25:00,70.8,59.3,30.17,ESE,113,8.0,11.0,67,0.00,,SKC,0.00,VWS V14.01,2013-02-10 23:25:00,
2013-02-10 18:30:00,70.6,59.1,30.17,ESE,102,9.0,10.0,67,0.00,,SKC,0.00,VWS V14.01,2013-02-10 23:30:00,
2013-02-10 18:35:00,70.3,58.8,30.17,East,91,5.0,6.0,67,0.00,,SKC,0.00,VWS V14.01,2013-02-10 23:35:00,
2013-02-10 18:40:00,70.2,59.2,30.18,East,93,9.0,13.0,68,0.00,,SKC,0.00,VWS V14.01,2013-02-10 23:40:00,
2013-02-10 18:45:00,70.0,59.0,30.18,East,96,8.0,10.0,68,0.00,,SKC,0.00,VWS V14.01,2013-02-10 23:45:00,
2013-02-10 18:50:00,69.8,59.2,30.18,East,91,5.0,7.0,69,0.00,,SKC,0.00,VWS V14.01,2013-02-10 23:50:00,
2013-02-10 18:55:00,69.6,59.0,30.18,SE,126,4.0,11.0,69,0.00,,SKC,0.00,VWS V14.01,2013-02-10 23:55:00,
2013-02-10 19:00:00,69.4,59.2,30.18,East,90,5.0,8.0,70,0.00,,SKC,0.00,VWS V14.01,2013-02-11 00:00:00,
2013-02-10 19:05:00,69.3,59.1,30.18,SE,126,5.0,5.0,70,0.00,,SKC,0.00,VWS V14.01,2013-02-11 00:05:00,
2013-02-10 19:10:00,69.1,58.9,30.18,East,84,3.0,7.0,70,0.00,,SKC,0.00,VWS V14.01,2013-02-11 00:10:00,
2013-02-10 19:15:00,68.9,59.1,30.18,ESE,111,5.0,8.0,71,0.00,,SKC,0.00,VWS V14.01,2013-02-11 00:15:00,
2013-02-10 19:20:00,68.7,58.9,30.18,ESE,116,5.0,5.0,71,0.00,,SKC,0.00,VWS V14.01,2013-02-11 00:20:00,
2013-02-10 19:25:00,68.6,59.2,30.18,SE,126,5.0,8.0,72,0.00,,SKC,0.00,VWS V14.01,2013-02-11 00:25:00,
2013-02-10 19:30:00,68.5,59.1,30.18,ESE,119,8.0,9.0,72,0.00,,SKC,0.00,VWS V14.01,2013-02-11 00:30:00,
2013-02-10 19:35:00,68.3,58.9,30.18,ESE,111,5.0,10.0,72,0.00,,SKC,0.00,VWS V14.01,2013-02-11 00:35:00,
2013-02-10 19:40:00,68.2,59.2,30.18,ESE,107,5.0,9.0,73,0.00,,SKC,0.00,VWS V14.01,2013-02-11 00:40:00,
2013-02-10 19:45:00,68.0,59.0,30.18,SE,126,3.0,6.0,73,0.00,,SKC,0.00,VWS V14.01,2013-02-11 00:45:00,
2013-02-10 19:50:00,67.9,59.3,30.19,East,95,1.0,5.0,74,0.00,,SKC,0.00,VWS V14.01,2013-02-11 00:50:00,
2013-02-10 19:55:00,67.8,59.2,30.19,ESE,118,11.0,11.0,74,0.00,,SKC,0.00,VWS V14.01,2013-02-11 00:55:00,
2013-02-10 20:00:00,67.7,59.1,30.19,ESE,104,7.0,7.0,74,0.00,,SKC,0.00,VWS V14.01,2013-02-11 01:00:00,
2013-02-10 20:05:00,67.5,59.3,30.20,SE,126,5.0,10.0,75,0.00,,SKC,0.00,VWS V14.01,2013-02-11 01:05:00,
2013-02-10 20:10:00,67.4,59.2,30.20,ESE,121,3.0,5.0,75,0.00,,SKC,0.00,VWS V14.01,2013-02-11 01:10:00,
2013-02-10 20:15:00,67.3,59.1,30.20,East,95,3.0,5.0,75,0.00,,SKC,0.00,VWS V14.01,2013-02-11 01:15:00,
2013-02-10 20:20:00,67.2,59.4,30.20,SE,127,3.0,4.0,76,0.00,,SKC,0.00,VWS V14.01,2013-02-11 01:20:00,
2013-02-10 20:25:00,67.0,59.2,30.20,ESE,106,5.0,5.0,76,0.00,,SKC,0.00,VWS V14.01,2013-02-11 01:25:00,
2013-02-10 20:30:00,66.8,59.0,30.20,East,98,9.0,11.0,76,0.00,,SKC,0.00,VWS V14.01,2013-02-11 01:30:00,
2013-02-10 20:35:00,66.7,59.3,30.20,SE,135,5.0,5.0,77,0.00,,SKC,0.00,VWS V14.01,2013-02-11 01:35:00,
2013-02-10 20:40:00,66.6,59.2,30.20,ESE,119,5.0,7.0,77,0.00,,SKC,0.00,VWS V14.01,2013-02-11 01:40:00,
2013-02-10 20:45:00,66.5,59.1,30.20,SE,126,7.0,7.0,77,0.00,,SKC,0.00,VWS V14.01,2013-02-11 01:45:00,
2013-02-10 20:50:00,66.4,59.0,30.20,SE,140,3.0,5.0,77,0.00,,SKC,0.00,VWS V14.01,2013-02-11 01:50:00,
2013-02-10 20:55:00,66.3,58.9,30.20,South,175,4.0,6.0,77,0.00,,SKC,0.00,VWS V14.01,2013-02-11 01:55:00,
2013-02-10 21:00:00,66.2,59.2,30.20,South,182,3.0,5.0,78,0.00,,SKC,0.00,VWS V14.01,2013-02-11 02:00:00,
2013-02-10 21:05:00,66.0,59.0,30.20,SE,134,4.0,5.0,78,0.00,,SKC,0.00,VWS V14.01,2013-02-11 02:05:00,
2013-02-10 21:10:00,65.9,58.9,30.20,ESE,113,3.0,3.0,78,0.00,,SKC,0.00,VWS V14.01,2013-02-11 02:10:00,
2013-02-10 21:15:00,65.9,59.2,30.19,ESE,107,5.0,7.0,79,0.00,,SKC,0.00,VWS V14.01,2013-02-11 02:15:00,
2013-02-10 21:20:00,65.8,59.1,30.19,ESE,111,3.0,3.0,79,0.00,,SKC,0.00,VWS V14.01,2013-02-11 02:20:00,
2013-02-10 21:25:00,65.7,59.0,30.20,SE,135,7.0,7.0,79,0.00,,SKC,0.00,VWS V14.01,2013-02-11 02:25:00,
2013-02-10 21:30:00,65.6,58.9,30.20,SE,125,3.0,4.0,79,0.00,,SKC,0.00,VWS V14.01,2013-02-11 02:30:00,
2013-02-10 21:35:00,65.6,58.9,30.20,ESE,119,8.0,8.0,79,0.00,,SKC,0.00,VWS V14.01,2013-02-11 02:35:00,
2013-02-10 21:40:00,65.5,59.2,30.20,ESE,116,3.0,4.0,80,0.00,,SKC,0.00,VWS V14.01,2013-02-11 02:40:00,
2013-02-10 21:45:00,65.4,59.1,30.20,SE,136,6.0,6.0,80,0.00,,SKC,0.00,VWS V14.01,2013-02-11 02:45:00,
2013-02-10 21:50:00,65.3,59.0,30.20,ESE,111,8.0,8.0,80,0.00,,SKC,0.00,VWS V14.01,2013-02-11 02:50:00,
2013-02-10 21:55:00,65.2,58.9,30.19,SSE,148,4.0,5.0,80,0.00,,SKC,0.00,VWS V14.01,2013-02-11 02:55:00,
2013-02-10 22:00:00,65.1,59.1,30.19,SE,131,1.0,3.0,81,0.00,,SKC,0.00,VWS V14.01,2013-02-11 03:00:00,
2013-02-10 22:05:00,65.1,59.1,30.19,SE,125,4.0,4.0,81,0.00,,SKC,0.00,VWS V14.01,2013-02-11 03:05:00,
2013-02-10 22:10:00,64.9,58.9,30.19,ESE,117,3.0,3.0,81,0.00,,SKC,0.00,VWS V14.01,2013-02-11 03:10:00,
2013-02-10 22:15:00,64.9,59.3,30.19,SE,128,3.0,3.0,82,0.00,,SKC,0.00,VWS V14.01,2013-02-11 03:15:00,
2013-02-10 22:20:00,64.8,59.2,30.19,SE,126,5.0,5.0,82,0.00,,SKC,0.00,VWS V14.01,2013-02-11 03:20:00,
2013-02-10 22:25:00,64.7,59.1,30.19,SSE,158,2.0,3.0,82,0.00,,SKC,0.00,VWS V14.01,2013-02-11 03:25:00,
2013-02-10 22:30:00,64.7,59.1,30.19,SE,138,6.0,6.0,82,0.00,,SKC,0.00,VWS V14.01,2013-02-11 03:30:00,
2013-02-10 22:35:00,64.6,59.0,30.19,ESE,122,4.0,7.0,82,0.00,,SKC,0.00,VWS V14.01,2013-02-11 03:35:00,
2013-02-10 22:40:00,64.6,59.0,30.19,SE,143,5.0,5.0,82,0.00,,SKC,0.00,VWS V14.01,2013-02-11 03:40:00,
2013-02-10 22:45:00,64.5,59.2,30.19,SSE,148,1.0,2.0,83,0.00,,SKC,0.00,VWS V14.01,2013-02-11 03:45:00,
2013-02-10 22:50:00,64.4,59.1,30.19,SE,127,3.0,4.0,83,0.00,,SKC,0.00,VWS V14.01,2013-02-11 03:50:00,
2013-02-10 22:55:00,64.4,59.1,30.20,SE,146,2.0,4.0,83,0.00,,SKC,0.00,VWS V14.01,2013-02-11 03:55:00,
2013-02-10 23:00:00,64.4,59.1,30.19,SE,132,6.0,7.0,83,0.00,,SKC,0.00,VWS V14.01,2013-02-11 04:00:00,
2013-02-10 23:05:00,64.4,59.1,30.19,SSE,155,3.0,5.0,83,0.00,,SKC,0.00,VWS V14.01,2013-02-11 04:05:00,
2013-02-10 23:10:00,64.3,59.0,30.19,SE,136,4.0,6.0,83,0.00,,SKC,0.00,VWS V14.01,2013-02-11 04:10:00,
2013-02-10 23:15:00,64.2,58.9,30.20,SE,138,6.0,6.0,83,0.00,,SKC,0.00,VWS V14.01,2013-02-11 04:15:00,
2013-02-10 23:20:00,64.2,58.9,30.20,SE,138,1.0,2.0,83,0.00,,SKC,0.00,VWS V14.01,2013-02-11 04:20:00,
2013-02-10 23:25:00,64.1,58.8,30.20,ESE,110,2.0,3.0,83,0.00,,SKC,0.00,VWS V14.01,2013-02-11 04:25:00,
2013-02-10 23:30:00,64.1,58.8,30.20,SE,125,4.0,4.0,83,0.00,,SKC,0.00,VWS V14.01,2013-02-11 04:30:00,
2013-02-10 23:35:00,64.0,58.7,30.20,SE,142,4.0,5.0,83,0.00,,SKC,0.00,VWS V14.01,2013-02-11 04:35:00,
2013-02-10 23:40:00,63.9,58.6,30.19,ESE,120,3.0,4.0,83,0.00,,SKC,0.00,VWS V14.01,2013-02-11 04:40:00,
2013-02-10 23:45:00,63.8,58.9,30.19,SE,130,3.0,5.0,84,0.00,,SKC,0.00,VWS V14.01,2013-02-11 04:45:00,
2013-02-10 23:50:00,63.6,58.7,30.19,SE,132,2.0,2.0,84,0.00,,SKC,0.00,VWS V14.01,2013-02-11 04:50:00,
2013-02-10 23:55:00,63.6,58.7,30.19,SE,138,4.0,5.0,84,0.00,,SKC,0.00,VWS V14.01,2013-02-11 04:55:00,